Location: El Azufral
(10.3513°N, 67.1528°W)
Time: 13:24:20
(UTC+00:00)

Daily predictions for brighter satellites

Satellite Brightness Start Highest point End
(mag) Time Altitude Azimuth Time Altitude Azimuth Time Altitude Azimuth
Centaur D-1AR AC-36 4.4 22:51:20 10° NW 22:57:02 52° NNE 23:44:29 10° E
Cosmos 1452 Rocket 4.2 23:03:38 10° NNW 23:08:45 58° WSW 23:13:54 10° S
Cosmos 1331 Rocket 4.4 23:03:42 10° NNW 23:08:47 66° WSW 23:13:51 10° S
Helios 1B rocket 3.0 23:06:17 10° S 23:10:05 58° WSW 23:13:54 10° NNW
Meteor 1-31 Rocket 4.1 23:07:12 10° S 23:10:40 39° W 23:14:05 10° NNW
Delta 202 4.4 23:06:08 10° WNW 23:12:02 49° N 23:17:07 10° E
Sylda 5 4.1 23:06:01 10° WSW 23:13:10 26° S 23:16:32 10° SE
Cosmos 1536 3.6 23:10:19 10° NNE 23:13:51 31° E 23:17:22 10° SSE
Okean 1 4.4 23:12:17 10° SSW 23:16:02 47° W 23:19:47 10° N
Lacrosse 4 Rocket 1.7 23:11:56 10° N 23:16:02 49° ENE 23:20:13 10° SE
H-2A R/B 1.9 23:10:30 10° WNW 23:17:46 85° SW 23:21:32 10° SE
CZ-4 R/B 3.5 23:19:04 10° E 23:19:22 10° ENE 23:19:40 10° ENE
ASTRO E2 3.5 23:18:34 10° WSW 23:21:53 44° NNW 23:25:12 10° NE
Cosmos 1302 Rocket 4.0 23:18:48 10° N 23:23:59 65° ENE 23:29:12 10° SSE
Cosmos 1151 Rocket 3.0 23:20:08 10° S 23:24:24 65° E 23:28:38 10° NNE
NOAA 6 4.2 23:20:30 10° S 23:25:37 78° WSW 23:30:45 10° NNW
USA 234 3.3 23:19:21 10° NE 23:25:53 89° ESE 23:32:25 10° SW
Cosmos 1726 1.9 23:24:08 10° N 23:27:09 69° W 23:30:09 10° S
YAOGAN 3 4.5 23:25:54 10° SSE 23:30:10 72° ENE 23:34:25 10° N
Nadezhda 4 Rocket 4.0 23:25:03 10° S 23:31:12 66° E 23:37:25 10° NNE
Meteor 1-11 Rocket 3.9 23:29:11 10° N 23:35:02 60° E 23:40:53 10° SSE
Okean 3 Rocket 4.2 23:32:05 10° NNW 23:36:24 59° W 23:40:46 10° S
YAOGAN 1 2.5 23:32:58 10° SSE 23:37:15 89° ENE 23:41:32 10° N
MAQSAT/ARIANE V 3.9 15:34:59 10° W 23:38:14 56° SSW 23:42:07 17° ESE
Cosmos 2082 Rocket 2.1 23:34:34 10° S 23:40:16 78° ESE 23:45:58 10° NNE
Cosmos 1500 Rocket 3.7 23:37:56 10° N 23:42:08 50° E 23:46:17 11° SSE
Meteor PRIRODA 3.4 23:39:12 11° SSE 23:42:20 57° ENE 23:45:37 10° N
Ariane H10 3.5 23:38:03 10° WSW 23:44:15 33° SSW 23:45:57 19° SE
Cosmos 2251 Rocket 3.4 23:40:49 10° S 23:46:03 83° ESE 23:51:19 10° NNE
Landsat 7 3.9 23:42:51 10° S 23:47:32 80° WSW 23:52:14 10° NNW
Cosmos 1340 2.3 23:46:06 10° N 23:49:25 61° E 23:51:37 19° SSE
Delta 128 4.3 23:46:18 10° SW 23:51:44 58° SSE 23:58:11 10° ENE
ADEOS 3.5 23:47:30 10° SSE 23:52:42 78° ENE 23:57:54 10° N
Cosmos 2279 Rocket 4.0 23:46:50 10° N 23:53:04 85° W 23:59:19 10° S
Hubble Space Telescope 3.1 23:53:59 10° WSW 23:55:43 12° SSW 23:57:27 10° S
